Location: Couloutre
(47.4081°N, 3.2259°E)
Time: 18:41:52
(UTC+00:00)

STARLINK-1025 - Pass Details

Date: 27 February 2020
Orbit: 549 x 550 km, 53.0° (Epoch: 29 March)

Event Time Altitude Azimuth Distance (km) Brightness Sun altitude
Rises 18:32:48 0° 281° (W) 2,719 9.1 -11.7°
Reaches altitude 10° 18:35:10 10° 290° (WNW) 1,825 7.5 -12.1°
Maximum altitude 18:39:02 37° 359° (N) 867 4.6 -12.7°
Enters shadow 18:41:48 17° 60° (ENE) 1,441 5.2 -13.2°
